Location: Boulin
(43.2500°N, 0.1333°E)
Time: 09:49:37
(UTC+00:00)

Cosmos 2058 Rocket - Pass Details

Date: 11 December 2025
Orbit: 603 x 633 km, 82.5° (Epoch: 21 January)

Event Time Altitude Azimuth Distance (km) Brightness Sun altitude
Rises 17:41:17 0° 165° (SSE) 2,910 6.6 -13.5°
Reaches altitude 10° 17:43:38 10° 157° (SSE) 2,009 5.6 -14.0°
Maximum altitude 17:47:42 36° 91° (E) 1,013 3.7 -14.7°
Enters shadow 17:50:22 19° 36° (NE) 1,525 4.6 -15.1°
